Theta_e
339 338 339 338 339 339 339 337 336 335 332 331 331 330 328 327 327 328 327 325 323 322 319 317 317 317 315 314 312 311 310 309 309 309 310 309 310 311 307 310 313 314 315 316 319 323 327 330 331 334 334 332 329 325 325 325 323 324 325 326 324 323 321 321 320 320 320 320 321 321 320 321 323 323 323 324 324 324 324 324 326 326 327 328 329
337 340 338 337 338 337 337 336 334 335 334 333 332 330 328 326 326 325 324 324 324 324 322 320 319 318 316 315 313 311 310 308 309 308 309 310 310 311 307 307 310 313 314 314 316 320 323 327 330 331 333 334 334 328 326 326 324 324 326 324 323 323 325 323 321 321 320 319 319 319 320 321 321 321 321 322 322 323 322 322 323 324 324 325 326
335 336 338 337 337 336 334 333 334 334 334 333 331 330 327 325 324 324 324 325 325 323 321 322 321 318 315 315 313 313 311 310 310 310 309 309 309 309 313 307 306 310 313 313 314 316 319 323 326 329 330 331 333 334 334 333 329 324 325 327 326 325 326 325 323 322 321 320 319 319 320 320 322 321 320 320 320 320 321 321 321 322 322 323 323
329 327 326 328 330 330 328 328 327 329 330 329 324 323 323 320 318 318 318 319 320 319 319 320 321 318 317 315 314 314 313 313 313 312 311 310 309 309 309 310 309 308 310 312 314 314 316 318 321 324 326 329 331 332 332 332 332 332 329 328 326 325 325 324 323 323 321 320 320 319 320 320 320 320 320 320 320 319 320 319 319 320 321 322 322
326 325 323 324 325 324 322 320 321 324 326 324 322 320 320 319 315 315 316 319 319 319 319 319 319 318 317 315 316 315 314 315 314 313 311 310 308 308 308 309 309 309 308 309 311 313 315 315 317 319 322 324 326 328 330 330 331 331 331 331 329 327 327 327 326 324 322 322 321 320 320 320 320 320 320 319 319 319 319 318 318 319 321 321 321
325 324 324 322 322 321 321 320 321 321 322 322 321 320 321 320 317 318 314 318 320 318 318 319 319 318 318 317 317 317 315 315 314 312 310 309 308 308 307 307 307 308 310 310 308 310 312 314 315 316 318 319 321 323 325 327 329 330 331 331 330 330 330 331 326 326 325 323 322 321 320 320 320 319 320 320 320 319 318 318 318 318 319 320 320
320 320 319 319 318 317 317 317 319 320 320 321 321 319 318 316 316 318 316 315 314 313 313 314 314 317 318 316 316 315 314 314 313 311 309 309 307 308 308 307 307 307 309 307 307 306 308 311 313 314 315 317 317 319 321 323 325 327 328 330 331 331 330 330 329 329 329 325 322 321 320 319 319 319 320 320 319 318 319 318 318 318 318 318 319
319 320 321 320 318 316 316 317 317 318 318 317 317 316 314 313 312 315 315 313 312 311 308 308 309 312 314 314 314 313 313 313 312 311 310 307 307 307 307 307 307 307 305 306 307 308 304 307 310 312 312 313 314 315 318 320 321 323 324 325 326 327 328 328 329 329 328 322 321 321 320 320 319 320 319 319 318 318 318 318 317 317 317 317 318
315 317 318 317 316 316 315 316 317 317 316 315 314 315 315 313 312 312 315 314 312 309 308 306 306 307 310 311 313 312 312 312 311 309 309 308 307 306 306 306 306 304 306 306 306 306 306 304 307 308 308 309 312 314 315 317 318 319 320 321 322 324 325 326 327 328 326 322 321 321 321 320 320 319 319 318 317 317 317 317 318 318 318 317 317
310 311 312 313 313 313 313 312 312 312 311 311 311 311 312 312 310 307 307 309 307 306 307 307 306 306 306 308 309 309 310 310 309 305 306 305 305 305 305 304 305 305 305 305 306 306 306 307 306 306 305 308 310 312 313 314 315 316 317 318 319 321 322 323 323 325 326 325 321 322 322 321 321 320 319 319 318 317 316 317 317 318 318 317 317
306 306 306 306 307 308 309 309 311 311 310 310 310 311 311 310 310 308 306 305 305 303 303 306 307 307 307 306 307 308 310 308 306 306 305 305 305 304 306 305 304 304 304 304 304 304 305 306 305 306 306 308 308 309 310 311 311 313 313 314 315 317 318 319 320 322 323 325 324 322 322 322 322 321 320 319 318 318 318 317 317 317 317 316 316
305 305 304 303 304 304 305 305 306 306 306 306 306 307 308 309 308 310 309 306 305 305 306 306 308 309 309 310 310 309 308 306 305 304 305 307 306 305 304 304 304 304 304 304 304 304 304 305 303 305 305 306 307 306 306 307 308 310 311 312 313 314 314 315 316 318 320 323 325 324 323 322 322 321 320 320 319 317 317 317 317 317 317 316 316
302 303 304 303 304 304 305 305 305 305 304 304 305 305 306 308 308 307 307 306 303 304 305 305 307 307 309 309 309 308 306 305 303 305 307 307 306 304 303 304 304 303 303 303 304 304 304 304 303 304 304 304 304 305 306 306 305 307 309 310 311 313 313 313 314 315 316 318 321 324 324 324 323 322 321 320 319 318 317 317 318 318 318 317 317
300 301 301 302 302 302 302 302 303 303 303 303 303 303 304 305 307 306 306 304 302 303 303 305 304 301 302 304 306 308 307 304 304 305 306 305 303 304 305 303 303 303 303 303 304 304 304 303 303 303 303 303 303 304 304 304 304 304 306 307 309 311 312 313 313 314 314 314 316 320 323 324 323 322 322 321 321 319 318 318 318 318 317 317 317
297 298 298 299 300 300 300 300 301 302 301 300 301 301 302 303 303 304 304 304 303 303 302 302 299 301 305 303 302 301 304 302 304 304 304 302 305 305 303 303 304 304 303 303 303 304 304 303 303 303 303 303 303 303 302 301 301 299 301 302 305 309 311 312 313 313 313 313 314 315 320 323 324 323 322 322 322 320 318 318 318 318 318 317 317
294 295 295 296 297 297 298 298 299 300 300 299 299 299 300 300 301 301 303 301 302 300 302 302 300 299 298 299 299 300 299 302 298 302 303 304 304 302 302 303 303 302 302 302 302 303 303 303 303 303 303 303 303 302 303 303 300 297 296 298 300 304 308 310 312 312 313 313 313 313 314 320 323 324 324 323 322 320 319 319 319 319 318 318 317
293 293 293 293 294 294 295 295 296 297 297 297 296 297 298 299 299 299 300 300 299 299 300 301 300 301 298 297 298 298 296 296 297 300 301 301 302 301 302 301 301 300 300 300 302 302 302 302 302 302 302 302 302 302 302 303 303 302 300 296 297 300 303 308 310 311 312 313 314 314 314 314 317 322 324 324 324 323 322 320 320 319 319 317 317
292 292 292 292 292 293 293 293 293 293 293 293 293 293 294 295 296 297 298 299 298 296 296 300 299 299 300 299 297 294 293 295 296 294 299 301 300 301 301 300 300 298 299 299 299 298 299 299 300 301 301 302 302 302 302 301 301 301 301 301 301 301 302 304 309 311 312 313 313 313 314 314 314 315 320 324 323 323 323 321 320 319 318 317 317
290 291 291 291 291 291 292 291 291 291 292 292 291 291 292 293 293 294 294 296 296 293 294 295 296 296 298 298 298 298 298 295 292 293 290 296 297 298 298 298 297 296 297 297 297 297 297 297 297 299 300 301 301 301 301 301 300 300 300 301 302 302 303 304 305 308 310 311 313 314 314 314 315 314 314 316 321 323 322 321 321 320 319 318 318
289 290 290 290 290 290 291 290 290 290 290 290 290 291 291 292 292 292 292 292 293 291 291 292 290 291 294 294 294 296 298 297 296 292 289 287 288 298 296 295 294 294 295 293 295 296 296 296 297 297 298 299 300 300 301 301 301 301 300 301 302 302 303 303 304 304 306 308 311 312 313 314 315 315 314 314 315 319 322 322 322 321 320 319 319
289 289 289 290 289 289 290 289 289 289 289 289 289 290 290 290 290 290 291 290 291 291 290 290 290 289 290 291 291 291 292 293 294 292 288 286 286 287 287 292 293 293 293 293 294 294 294 295 296 297 298 298 299 300 300 300 300 300 300 300 300 302 303 304 302 302 303 304 305 307 310 312 312 314 315 315 315 315 317 321 323 322 322 321 321
288 289 288 289 289 289 289 289 288 288 288 288 289 289 289 289 289 289 289 289 289 289 288 289 290 289 289 290 288 288 289 289 289 289 289 289 285 286 287 286 285 288 291 292 293 292 292 294 295 296 297 297 297 298 299 300 300 300 299 297 298 300 301 302 302 302 302 303 304 305 308 310 311 312 313 314 315 315 315 315 319 321 321 321 320
287 288 288 288 288 288 288 288 288 287 287 287 287 287 288 288 288 288 288 288 288 289 288 288 289 289 288 288 287 287 287 286 286 287 287 286 285 286 286 287 286 286 289 292 291 292 292 294 293 294 295 295 296 297 297 298 296 298 295 296 297 298 299 300 301 301 302 302 302 303 304 305 307 309 311 313 313 314 314 315 314 316 320 320 321
287 287 286 287 287 287 287 287 286 287 286 287 287 287 287 287 288 287 287 287 287 287 287 286 287 287 287 287 287 288 287 286 287 287 287 286 286 284 285 286 286 287 289 290 291 290 292 291 292 293 294 294 295 296 296 297 297 295 295 295 296 297 299 299 301 300 301 301 301 302 303 303 304 304 306 308 312 314 314 314 314 314 314 317 320
286 285 286 286 286 286 285 285 286 286 286 286 286 286 287 287 286 287 286 286 286 286 285 285 285 285 285 287 287 287 286 287 287 286 287 287 286 283 285 286 283 284 287 288 287 290 290 291 292 294 293 292 294 294 294 296 296 295 293 295 296 297 297 298 298 299 299 299 300 302 302 303 303 304 305 307 308 310 312 314 314 315 315 314 314
285 285 285 286 286 286 286 285 286 286 286 286 286 286 286 286 286 286 286 285 286 286 285 285 285 285 285 285 285 286 286 286 286 286 285 285 283 283 283 284 284 284 286 287 288 287 289 292 293 292 292 293 294 295 295 295 295 294 291 293 294 295 297 297 297 298 298 299 300 301 301 301 302 303 303 306 307 308 309 311 313 315 315 316 316
285 285 286 285 285 285 285 285 285 285 285 285 286 286 286 286 285 285 285 285 285 285 285 284 284 284 284 284 284 285 285 285 285 285 286 285 284 284 283 281 281 283 283 285 286 287 287 289 291 291 292 292 293 293 293 295 294 293 291 292 292 292 295 295 297 298 298 299 299 300 300 300 301 302 303 304 305 306 307 309 310 311 313 315 315
285 285 285 285 285 285 285 284 284 284 284 284 284 284 284 285 284 284 284 285 284 284 284 284 284 283 284 284 284 284 285 284 285 285 285 285 285 285 284 282 280 278 282 281 283 285 288 287 289 291 291 292 292 292 292 293 293 292 290 291 291 292 294 294 296 297 298 298 298 298 299 299 300 301 302 302 303 303 304 305 306 307 306 306 307
285 285 284 284 284 284 284 284 284 284 284 283 283 283 284 284 283 283 283 283 283 283 283 283 283 283 283 283 283 283 284 284 284 284 284 284 284 284 284 283 282 280 278 279 281 282 285 287 285 288 291 291 292 293 291 290 290 290 290 290 291 292 293 294 295 296 296 297 297 297 297 298 298 299 300 301 302 302 303 303 304 305 306 306 307
284 284 284 284 283 283 283 283 283 283 283 283 283 283 283 284 283 283 283 283 283 283 283 283 282 283 283 282 283 283 283 283 283 283 283 283 283 283 284 284 283 280 280 278 279 283 283 286 287 286 288 288 289 289 290 289 290 290 290 290 290 290 292 293 293 294 295 296 296 296 296 297 297 298 298 299 300 302 303 303 304 304 305 307 307
284 284 284 284 283 283 283 283 283 283 283 283 282 283 283 283 282 283 283 282 282 282 283 282 282 282 281 281 282 282 282 282 282 282 283 283 283 282 282 283 282 282 281 280 278 281 285 283 285 287 286 287 288 288 289 289 289 289 289 289 289 290 290 290 291 292 294 294 294 294 295 296 297 297 298 299 300 301 302 302 302 303 304 305 307
284 284 284 283 283 283 282 282 282 282 282 282 282 282 282 282 281 281 281 281 280 280 281 282 282 281 281 280 281 281 281 281 281 282 282 282 282 282 282 282 282 282 281 280 279 278 283 283 284 285 287 286 287 286 286 287 288 288 289 288 289 289 289 289 290 291 292 292 293 294 295 295 296 296 296 297 298 299 300 301 301 302 303 303 305
283 283 282 282 282 282 281 281 281 281 281 280 281 281 280 280 280 280 280 279 279 279 280 280 281 280 280 279 280 280 281 280 280 281 281 281 281 281 281 281 281 281 281 280 278 278 281 284 283 283 285 285 284 286 285 286 286 287 287 288 288 288 288 289 289 289 291 291 292 293 293 294 294 295 296 296 297 298 299 300 300 301 302 303 303
282 281 281 281 281 280 280 280 280 280 279 280 279 279 279 278 279 279 279 278 278 278 279 278 279 280 279 279 279 279 280 279 279 279 280 280 280 280 280 280 280 280 281 279 278 278 277 281 281 283 283 285 282 285 284 284 284 285 285 286 287 287 287 288 288 289 290 290 290 291 292 294 294 295 295 296 297 297 299 299 299 299 301 301 302
281 280 280 280 279 279 279 279 279 278 278 278 278 278 278 277 277 278 278 278 277 277 277 278 278 279 278 278 278 279 279 278 278 278 279 279 279 279 279 279 279 279 280 280 278 277 277 278 280 280 281 282 282 282 284 284 284 284 284 285 285 286 287 287 287 288 289 290 290 291 292 293 293 294 295 295 296 296 297 298 299 299 299 300 300
279 279 279 278 278 278 278 278 278 277 277 277 277 277 277 277 277 276 277 277 277 277 277 277 278 277 277 277 277 277 277 277 277 277 278 278 278 278 277 278 278 278 279 279 279 278 277 276 278 279 280 280 281 282 283 283 283 283 284 284 285 285 286 287 287 287 288 290 290 290 291 291 292 292 293 294 294 295 296 296 297 298 298 299 299
278 278 278 278 277 277 276 277 277 277 276 276 276 276 276 276 276 276 276 277 277 277 277 277 277 277 277 276 276 277 276 276 276 276 277 276 276 276 276 277 277 277 278 278 278 278 277 276 277 279 280 280 281 281 282 281 281 282 283 283 284 284 285 286 286 287 288 289 289 289 290 290 291 291 292 293 293 294 295 295 296 297 297 298 298
277 277 276 277 276 276 276 276 276 276 276 275 275 275 275 275 275 276 276 277 277 277 277 277 277 277 276 276 276 276 276 275 275 275 275 275 275 275 276 276 276 277 277 277 277 277 276 276 276 276 278 278 278 279 280 281 280 280 280 281 282 283 284 284 285 286 287 287 287 288 288 289 289 290 291 292 293 294 294 293 294 295 295 296 297
276 276 276 275 276 275 275 275 274 274 274 274 274 275 274 275 275 276 276 277 277 277 277 277 277 277 276 276 276 276 275 275 275 275 275 275 275 275 275 275 276 275 275 275 275 275 275 275 275 276 276 277 277 276 279 280 279 279 278 279 280 282 283 282 282 284 285 285 287 287 287 288 288 288 289 289 290 291 292 293 293 293 293 294 296
275 275 274 274 275 274 274 274 274 274 273 274 274 274 274 275 276 276 276 276 276 276 276 277 277 276 276 276 276 276 275 275 275 275 275 274 275 274 275 275 275 274 274 274 274 273 273 273 273 273 275 274 275 277 278 278 277 277 279 277 276 276 278 280 281 282 284 284 284 286 287 287 288 288 289 290 290 291 291 291 292 292 292 293 293
274 274 273 273 273 273 273 273 272 273 272 273 273 273 274 276 276 276 276 276 275 275 276 276 276 276 276 276 276 276 276 275 275 276 276 275 274 272 273 274 273 273 272 272 272 272 271 272 271 273 273 273 273 274 274 274 274 274 277 277 276 277 279 278 279 281 282 282 284 284 285 286 286 286 287 287 288 289 290 291 292 291 292 292 293
273 272 272 272 272 272 272 272 272 272 272 272 271 272 275 276 276 276 275 275 275 275 275 275 275 275 275 275 275 275 274 274 274 274 274 275 275 274 273 273 273 272 271 271 270 271 271 270 270 271 270 271 272 273 273 274 275 276 275 275 274 275 276 275 276 278 281 280 280 280 282 284 283 284 286 286 288 289 289 290 290 290 291 291 292
271 271 271 271 271 271 271 271 271 271 271 271 271 274 275 276 275 275 275 275 275 275 275 274 274 274 274 274 274 274 273 273 273 273 274 275 275 275 275 275 275 273 271 270 270 271 270 270 270 270 270 270 271 272 272 273 274 274 274 274 274 274 273 272 271 275 279 279 278 277 277 280 281 279 281 283 285 287 288 289 290 290 290 291 291
270 270 270 270 270 270 270 270 270 270 271 271 272 273 274 275 276 275 275 274 274 274 274 274 274 273 273 273 273 273 273 273 272 272 273 273 274 274 274 274 274 275 275 273 271 270 270 269 269 270 270 270 271 272 272 273 273 274 274 274 274 273 273 272 273 272 277 279 277 276 276 279 281 280 279 281 283 285 286 288 289 289 290 291 291
269 269 270 269 269 269 269 269 269 269 270 270 271 273 274 275 275 275 275 275 274 274 274 273 273 272 272 272 272 272 272 272 272 272 272 272 273 273 273 273 274 274 274 275 275 273 272 271 270 270 271 272 271 272 274 274 275 273 273 273 274 274 274 273 273 274 276 278 276 275 275 277 279 279 279 281 282 284 284 286 287 288 289 290 290
269 269 269 268 268 268 268 268 268 268 269 269 271 272 273 274 275 275 274 274 274 273 272 272 272 272 272 271 271 271 272 272 272 272 272 272 272 272 271 272 272 273 274 275 276 276 276 273 272 271 273 274 273 274 275 276 274 273 273 273 274 274 274 274 275 276 277 279 276 275 274 276 279 279 278 280 283 283 284 285 287 288 289 289 290
268 268 268 267 267 266 266 266 267 267 268 269 271 272 273 274 275 275 274 273 272 272 272 271 271 271 271 271 271 271 271 272 272 272 272 272 272 271 271 271 271 272 273 273 274 275 275 275 274 274 274 275 275 275 276 276 276 275 275 274 275 275 275 277 277 277 277 279 278 276 272 275 278 277 277 279 281 282 283 285 287 288 289 289 289
268 267 267 267 265 265 265 265 265 265 267 269 270 271 272 273 274 273 272 271 271 271 271 271 271 271 272 271 271 271 271 271 273 275 274 274 273 272 271 272 272 273 273 275 277 277 276 276 276 275 275 276 277 276 276 276 276 276 276 277 277 276 275 274 273 275 274 277 278 276 273 274 277 276 276 278 279 278 280 282 286 287 288 289 289
267 267 266 265 265 265 264 264 264 264 266 267 269 271 272 273 273 271 271 271 271 270 271 271 271 272 272 272 271 271 272 272 274 276 276 276 273 273 272 272 272 273 273 275 278 279 279 280 280 280 280 281 281 281 281 282 280 279 278 275 274 275 273 271 272 272 273 275 277 277 275 273 275 276 275 277 277 277 278 279 281 285 287 288 289
266 266 265 265 264 264 263 263 263 263 264 266 269 270 271 272 272 271 271 270 270 270 270 271 272 272 272 273 273 273 272 272 275 276 278 277 274 274 273 273 273 273 274 275 276 277 279 280 280 280 280 280 281 281 281 281 281 280 276 273 274 275 272 272 270 272 273 274 276 277 274 273 275 276 275 276 277 277 278 279 282 284 285 286 287
265 265 264 264 263 263 263 262 263 264 264 265 267 269 270 271 272 271 271 270 269 270 270 270 272 272 272 273 274 274 274 274 277 278 278 277 275 274 274 273 273 273 274 275 275 275 276 276 276 277 277 278 278 278 278 280 280 279 278 276 276 274 272 272 272 272 270 272 276 278 273 273 274 275 275 273 271 275 277 278 278 279 281 284 285
Wind_Speed
5 5 4 5 5 5 5 3 3 2 3 3 3 3 3 2 2 1 2 2 2 2 1 1 0 1 2 2 2 2 2 2 2 2 2 2 2 3 4 5 7 8 9 10 10 10 11 11 12 14 14 10 9 7 5 5 1 4 6 7 2 3 2 3 3 2 1 2 6 6 4 6 4 5 5 6 7 8 7 8 9 9 8 9 11
3 3 5 5 5 3 2 2 4 4 4 4 5 3 2 2 1 1 2 2 2 1 1 1 1 1 2 3 3 4 3 3 3 3 3 3 2 1 4 5 6 7 8 9 9 9 10 11 13 14 15 14 13 10 8 8 4 4 7 5 2 5 9 6 5 6 3 1 1 3 4 3 2 2 3 4 5 6 7 7 8 8 8 8 7
3 3 3 4 2 1 1 2 2 3 3 1 1 1 1 2 3 3 2 2 2 1 1 0 1 2 2 1 2 3 3 3 3 3 4 3 4 4 2 3 5 6 7 8 9 8 9 9 11 12 14 15 15 16 15 13 10 3 5 9 6 6 12 5 6 5 3 3 3 1 4 4 4 3 3 1 4 5 7 8 7 8 8 7 7
7 6 6 6 5 6 5 4 4 3 2 2 4 4 2 3 3 3 4 5 4 2 2 2 1 2 1 1 1 2 1 2 3 3 3 4 4 4 4 4 1 2 5 7 8 8 9 9 9 10 11 13 14 16 16 16 14 11 9 10 6 8 8 8 5 9 7 6 4 4 5 6 6 6 4 5 4 6 7 8 7 7 8 6 7
8 7 7 6 6 7 5 5 5 4 4 5 5 4 3 3 5 4 4 1 2 2 1 2 2 2 2 2 2 2 2 3 2 2 2 2 2 3 3 4 4 1 2 3 5 7 8 8 9 9 10 10 12 13 15 14 16 15 12 11 9 8 10 11 10 8 10 9 7 7 6 6 6 5 2 3 4 6 8 9 9 8 9 9 8
7 7 7 6 6 7 6 5 3 4 4 3 3 4 3 4 3 3 3 2 2 3 3 3 2 2 1 1 2 2 3 3 3 3 3 2 1 1 2 2 3 4 3 2 1 4 6 8 9 10 10 10 10 11 12 13 14 15 14 14 12 10 12 14 10 10 12 10 10 8 6 6 5 3 5 6 8 9 7 7 9 9 9 10 9
8 7 8 7 7 6 7 5 5 5 4 4 4 4 4 4 3 2 2 3 3 3 3 3 3 3 3 2 3 3 3 3 3 3 3 3 3 2 2 2 2 2 2 4 3 4 4 7 9 10 11 12 12 12 11 11 12 12 13 15 16 16 14 14 12 13 14 10 11 9 7 5 4 3 4 7 8 9 9 7 9 10 10 11 11
7 7 8 8 8 8 7 6 6 5 5 5 5 5 4 3 2 1 2 2 2 2 2 2 3 3 3 3 2 2 3 3 3 4 3 3 3 3 3 3 3 3 4 3 4 1 2 4 7 8 9 10 11 12 12 12 12 11 12 13 14 15 14 15 15 15 14 3 8 8 8 5 5 6 5 7 6 5 8 10 10 10 10 11 11
9 9 9 9 8 8 8 8 7 6 7 6 6 6 4 3 2 3 3 3 2 1 0 1 1 2 2 2 2 2 2 2 2 3 2 3 3 3 4 3 3 3 3 4 4 5 3 0 4 6 7 8 10 11 12 12 13 13 13 13 13 13 14 14 15 16 14 9 9 10 10 9 9 7 9 8 6 6 8 10 11 10 11 12 12
11 10 9 9 10 11 9 8 7 7 6 7 7 6 5 4 4 4 5 3 3 3 3 2 2 2 2 3 2 2 2 2 1 2 2 4 3 4 4 3 3 3 3 4 5 4 5 2 4 7 7 6 8 11 12 12 13 14 14 14 14 13 13 13 13 13 13 11 10 12 12 12 11 10 9 8 7 8 7 8 10 10 11 11 12
10 9 9 8 7 7 6 6 4 5 5 5 5 4 5 5 5 5 4 4 3 3 3 4 3 2 2 2 2 2 2 1 1 2 2 2 3 3 2 3 3 3 3 3 3 4 4 5 5 6 4 2 8 10 11 12 13 14 15 15 15 15 15 14 14 13 13 12 11 13 14 14 13 12 10 9 10 10 11 10 10 10 10 11 12
9 9 9 7 7 8 8 8 8 8 8 9 8 7 7 6 6 4 3 2 4 4 5 5 4 3 2 2 2 2 1 1 1 2 2 2 3 3 3 3 3 3 3 3 3 3 4 5 5 5 5 6 5 8 10 10 11 13 14 15 15 16 16 16 16 15 14 13 11 12 14 16 14 13 12 12 11 10 8 8 10 10 10 11 12
11 10 10 10 9 8 9 9 9 9 9 9 8 8 7 5 4 6 7 7 7 8 8 7 4 5 5 3 2 1 1 2 3 3 4 4 4 3 3 4 5 5 4 3 3 3 4 5 5 5 6 6 7 6 6 8 10 11 12 14 15 16 16 16 17 17 16 15 14 14 15 15 15 14 14 14 14 12 9 10 10 10 11 11 11
9 9 9 8 8 8 8 8 7 7 8 8 9 9 10 9 5 5 6 6 7 8 8 7 5 7 7 6 1 1 4 3 4 6 7 4 3 4 4 5 6 6 5 5 5 5 5 5 5 5 6 6 6 6 7 6 7 8 12 14 16 16 17 17 18 18 18 17 16 14 14 14 15 15 15 15 16 14 11 11 11 12 12 12 12
9 9 7 8 8 8 7 7 7 6 7 9 9 10 9 9 9 7 4 6 6 8 9 9 6 7 4 4 3 5 4 4 5 10 5 4 4 5 5 5 7 6 5 6 7 8 6 5 5 5 6 6 6 6 6 7 7 7 11 13 14 16 17 17 18 18 18 18 17 16 14 13 15 16 16 16 17 15 13 12 12 13 13 13 13
10 9 9 9 9 8 7 8 8 8 8 8 9 9 9 9 9 9 6 6 7 8 9 9 8 8 6 5 6 3 4 1 10 6 2 3 7 5 5 6 8 7 6 8 8 7 6 6 7 6 6 6 6 6 6 6 9 9 8 10 11 13 15 17 18 18 18 18 18 18 16 15 15 17 18 17 18 17 16 14 15 15 15 15 14
10 10 9 10 10 9 9 8 9 8 8 8 9 9 8 8 9 8 9 6 6 6 7 8 10 8 6 5 3 3 5 8 11 3 2 7 4 4 4 6 5 7 8 8 8 8 8 8 8 8 7 7 7 7 7 7 7 7 8 8 7 9 14 16 18 18 19 19 19 18 18 17 17 18 18 20 21 20 17 17 16 16 16 14 13
9 10 10 9 9 9 9 8 9 8 8 8 8 8 9 9 9 8 9 8 6 7 6 6 8 9 8 6 4 4 7 8 7 5 8 3 4 4 5 5 5 8 6 7 8 8 8 8 9 9 8 8 8 8 7 7 7 7 7 9 12 12 13 15 17 18 19 19 19 19 19 19 19 18 20 20 20 19 20 17 18 17 16 16 16
10 10 9 9 9 9 9 9 9 8 8 8 9 9 8 8 8 8 8 7 7 7 7 6 5 8 7 6 5 3 4 6 5 8 8 3 4 5 4 5 8 8 6 6 7 8 8 9 10 9 9 8 8 8 7 8 9 8 9 10 13 12 13 15 16 17 18 19 20 20 19 20 20 20 20 20 21 21 19 19 21 19 17 18 19
9 10 10 9 9 9 9 9 9 8 8 8 8 8 7 8 9 8 8 7 8 7 7 7 7 6 6 6 6 4 3 3 3 5 7 10 9 1 2 5 7 5 4 8 7 7 9 9 9 10 9 8 7 7 7 7 7 8 8 10 13 15 16 16 16 17 18 19 20 20 21 20 20 21 21 21 21 21 22 22 22 21 20 19 21
10 9 10 10 9 9 9 9 9 9 8 8 8 8 9 9 9 8 8 7 7 7 6 6 6 6 6 6 6 6 5 4 3 5 6 9 9 8 10 5 3 2 5 7 6 7 8 8 7 8 8 9 8 7 7 7 7 7 8 10 13 15 15 16 16 16 16 18 19 20 21 21 21 21 21 21 21 21 21 23 24 23 23 22 24
9 10 10 10 10 9 9 9 9 8 7 7 7 8 7 7 7 7 7 7 6 6 6 5 4 5 5 4 5 5 4 4 5 7 6 5 9 11 10 12 11 5 4 5 7 8 8 6 7 7 7 7 8 8 7 7 7 6 6 10 12 13 14 15 15 16 16 17 18 19 20 20 21 21 21 21 21 21 21 21 22 25 24 22 21
7 7 9 8 8 8 8 8 7 7 7 7 7 6 6 5 5 6 7 7 5 5 5 5 4 4 5 4 4 4 4 5 6 6 6 7 9 9 10 9 11 13 5 4 6 8 6 5 8 7 6 7 7 7 7 8 8 5 7 7 9 11 13 14 15 16 16 17 18 18 19 20 21 20 21 21 20 21 21 21 22 22 23 24 23
6 6 7 7 6 7 7 7 7 7 7 6 5 5 5 5 5 5 5 5 6 5 5 6 7 4 4 4 3 3 4 4 5 5 6 7 7 10 10 10 10 8 8 8 7 6 5 6 7 6 6 7 7 7 8 8 8 7 6 9 8 10 12 14 16 17 17 18 18 19 18 18 19 20 20 20 20 21 21 21 21 22 22 24 24
6 6 7 7 5 6 6 6 5 6 5 5 5 5 4 4 5 5 5 6 5 5 5 5 5 5 4 4 3 3 3 3 3 4 5 6 7 9 8 8 11 11 9 8 6 5 6 7 5 5 6 7 7 7 7 7 7 7 7 9 10 10 11 13 16 17 18 19 19 20 19 19 19 19 19 20 20 21 21 21 21 22 22 23 25
5 6 4 5 5 5 5 5 5 5 5 5 4 4 4 4 4 4 4 4 3 3 3 4 3 4 4 3 3 3 3 3 4 4 5 5 6 7 10 8 9 11 9 8 8 8 4 4 5 5 6 6 7 8 7 7 7 6 9 9 12 14 13 14 16 16 17 19 19 20 20 20 20 20 20 20 21 21 21 21 22 22 22 22 23
5 4 4 5 5 5 5 5 5 5 4 4 3 4 4 3 3 4 3 4 4 4 3 4 3 4 4 4 4 3 3 3 4 4 4 4 5 6 7 11 11 8 10 8 9 9 9 7 5 6 6 7 6 7 8 6 7 6 7 11 12 15 14 16 17 17 18 19 19 20 20 20 20 21 21 21 21 21 22 22 22 22 22 22 22
4 4 4 4 4 4 4 4 4 4 4 4 4 3 4 3 3 3 3 2 3 4 3 3 3 4 3 4 4 4 3 3 4 4 4 4 5 5 6 6 9 13 10 11 9 9 7 8 7 7 6 6 7 7 7 7 9 11 13 11 10 11 14 16 18 18 18 19 19 19 20 21 21 21 22 22 21 22 22 22 22 22 22 22 22
4 3 3 3 3 3 3 3 3 3 3 3 3 3 3 2 3 2 3 3 2 2 2 2 3 3 3 3 4 4 4 4 4 4 4 4 4 5 5 6 7 9 11 13 10 11 8 8 9 8 6 7 7 7 9 10 11 11 11 11 11 11 12 15 18 20 20 20 20 20 20 21 22 22 22 22 23 22 22 22 21 22 22 22 23
3 2 3 3 3 3 3 3 3 3 3 3 3 3 3 2 2 2 3 4 3 3 2 3 4 4 4 4 4 4 4 4 5 5 5 5 5 5 5 6 5 7 9 11 14 9 10 9 8 11 10 10 10 11 10 10 10 10 12 12 12 12 14 16 18 20 21 22 21 19 20 21 22 22 23 23 23 23 23 23 22 22 23 23 24
3 3 3 3 3 3 3 3 3 4 4 4 4 4 4 4 4 3 4 4 4 4 3 4 4 4 5 5 4 4 4 5 5 5 5 5 5 5 6 6 6 7 8 9 13 11 6 10 12 10 12 14 11 12 10 10 11 11 12 12 13 14 14 15 17 18 19 20 20 21 21 22 22 23 24 24 24 24 24 24 24 23 23 24 24
4 4 4 4 4 4 4 4 4 4 5 4 5 5 4 4 4 4 5 5 5 5 4 4 4 4 5 6 6 5 5 5 5 5 5 5 5 6 6 6 7 7 8 10 12 17 11 10 13 13 11 13 13 12 14 11 10 12 11 11 12 14 13 12 14 15 18 20 21 21 22 22 22 23 24 24 25 25 25 25 24 24 24 24 24
4 4 4 4 4 4 4 4 4 4 4 4 4 4 4 4 4 4 4 5 5 5 5 6 5 5 6 6 7 6 6 6 6 6 6 6 7 6 6 7 7 7 8 9 12 16 14 10 11 12 11 10 13 11 13 13 13 11 12 12 13 12 12 12 12 15 16 19 20 20 21 22 23 23 23 23 24 24 24 25 24 24 24 23 23
4 3 3 3 3 3 2 3 3 3 3 3 4 3 4 4 4 3 4 5 6 6 5 6 6 5 6 7 7 7 6 6 7 7 7 7 7 7 7 7 8 8 7 9 11 12 17 14 12 11 12 8 13 10 10 12 16 13 14 13 12 12 12 12 12 12 16 17 20 21 22 22 23 24 24 23 23 23 24 24 24 23 24 24 23
3 2 2 2 2 2 2 2 2 2 3 3 3 3 4 4 5 5 4 5 5 6 6 6 6 6 7 6 7 6 5 7 7 7 7 7 7 8 9 8 9 10 9 9 10 13 15 16 14 15 12 10 9 12 12 10 13 15 15 14 13 11 11 12 12 12 15 18 20 21 21 22 23 24 24 24 24 23 23 24 24 23 23 24 23
2 2 1 1 1 2 2 2 2 3 3 4 4 4 4 4 5 5 5 5 5 6 6 6 6 6 7 7 7 7 7 8 7 7 7 7 7 8 9 9 9 10 10 10 11 11 13 15 15 13 13 13 11 12 11 11 12 14 13 13 14 13 13 12 12 12 13 18 19 21 23 23 24 24 24 24 24 24 24 24 23 23 23 23 23
1 1 1 1 1 1 1 2 3 3 3 4 4 4 4 4 5 5 6 6 6 6 6 6 6 7 7 7 8 7 7 8 8 7 7 9 9 9 9 9 9 9 9 9 10 11 13 15 16 14 14 14 12 12 12 13 13 13 13 13 13 14 15 14 12 12 16 19 21 23 23 24 23 23 24 24 24 24 24 23 23 23 22 22 22
1 1 1 1 1 1 1 2 2 3 3 4 4 4 5 5 5 5 5 6 6 6 6 6 6 6 6 7 7 7 7 8 8 8 8 10 9 9 10 10 10 10 11 11 11 12 13 14 15 17 14 14 14 12 12 13 13 14 14 14 14 13 13 13 12 10 10 9 9 10 13 16 19 21 21 21 22 23 24 24 23 23 22 20 20
1 1 1 0 0 0 1 1 2 3 4 4 4 4 5 5 5 6 6 6 6 6 6 6 6 6 7 7 7 7 8 8 8 8 9 10 9 11 10 11 11 10 11 10 11 12 12 13 14 14 15 13 12 14 12 13 14 13 15 14 13 11 12 13 15 13 12 13 14 16 16 17 20 19 21 24 25 25 26 25 24 24 22 20 20
1 1 0 0 1 1 1 2 2 3 4 4 4 4 4 5 6 6 6 6 7 6 7 7 6 7 7 7 7 7 7 7 7 9 10 10 10 11 10 10 11 11 11 10 10 11 11 12 13 13 12 14 13 12 12 13 13 12 10 12 15 15 15 14 14 15 14 13 14 13 12 15 15 17 21 23 25 27 27 25 25 23 22 21 22
1 1 1 1 1 1 1 2 2 3 3 3 2 3 5 6 6 7 7 7 7 8 8 7 7 7 7 7 7 7 7 11 15 14 14 14 12 12 11 10 11 11 11 10 10 10 10 11 12 11 12 13 12 12 12 11 12 14 13 13 15 14 13 13 14 13 13 15 14 14 12 12 13 13 12 12 12 15 16 16 16 18 18 20 20
1 1 1 1 1 1 2 2 2 3 3 3 3 8 8 7 7 7 7 7 7 7 8 8 8 8 8 7 8 11 12 13 14 15 15 15 16 13 12 11 11 11 11 11 11 10 11 12 12 12 12 12 12 12 13 13 14 14 14 13 15 14 14 15 15 12 11 13 15 16 14 12 13 13 13 13 12 12 11 11 11 11 12 13 15
2 2 2 2 2 2 2 2 3 4 3 3 7 9 9 10 8 7 7 7 8 8 8 8 8 8 8 8 8 9 10 11 10 13 15 17 16 17 17 17 15 13 12 12 11 11 11 12 12 12 12 14 14 13 13 13 13 14 14 13 14 14 14 14 16 13 7 10 13 14 16 13 12 15 14 14 14 13 13 12 15 16 16 17 19
2 2 2 3 2 2 2 2 3 4 4 5 9 9 10 10 10 8 7 7 7 7 8 8 8 8 8 8 8 7 7 8 10 11 13 14 15 16 17 16 16 17 16 13 12 11 12 13 13 13 13 14 14 12 12 12 13 13 13 13 13 13 15 14 14 15 12 13 15 16 18 14 12 14 15 13 14 14 15 18 21 21 21 21 21
2 3 3 3 3 2 3 3 4 5 5 6 9 10 10 11 11 10 7 7 7 8 8 9 8 8 8 8 8 7 7 11 10 10 11 11 13 16 16 16 16 16 15 17 18 15 14 15 16 16 14 15 15 13 12 14 14 16 15 14 14 15 15 16 16 16 14 12 16 17 18 16 11 14 15 13 13 13 15 19 24 24 24 24 24
3 4 3 4 3 3 3 3 4 5 6 7 10 11 11 11 11 10 8 8 8 8 8 8 7 8 8 8 9 9 9 10 10 11 11 12 13 13 12 11 12 15 18 21 23 25 22 18 18 17 17 15 15 15 16 17 18 16 15 15 16 16 16 16 18 18 17 12 14 16 19 16 9 13 16 14 11 12 13 18 24 25 26 26 25
4 4 4 4 4 3 3 3 4 5 6 9 10 11 11 11 12 10 7 7 7 7 8 8 9 9 10 9 10 10 11 11 11 13 14 14 14 13 13 14 14 15 15 15 16 16 15 15 16 17 18 17 17 18 17 17 19 17 16 17 17 16 16 16 16 15 15 12 14 14 17 16 8 13 16 14 12 13 12 16 22 24 24 24 26
4 3 4 3 4 4 4 4 4 6 7 9 10 11 11 11 12 7 6 6 7 7 8 8 9 9 9 10 10 12 13 13 16 19 18 16 16 15 16 15 15 14 14 16 22 22 20 18 17 18 17 18 21 19 17 15 14 13 14 15 14 15 16 16 16 14 14 11 13 14 15 16 10 13 15 12 12 14 14 14 19 22 23 25 25
5 5 4 4 4 4 4 5 5 6 7 8 10 11 11 11 8 5 6 6 6 7 8 9 9 9 9 10 11 12 14 15 18 21 21 21 16 15 15 14 13 12 12 14 21 25 27 29 31 32 32 31 30 30 30 32 24 19 15 15 15 13 16 17 16 14 15 13 13 13 15 18 12 13 15 12 12 14 14 13 13 19 23 23 25
5 5 4 4 4 4 5 6 5 5 7 9 11 11 11 10 8 6 6 6 7 7 8 8 8 9 10 16 17 15 16 16 19 22 24 21 15 14 15 16 17 15 16 14 15 15 25 28 28 29 28 28 29 29 30 28 27 20 14 17 15 15 17 16 18 15 15 13 14 13 15 15 13 12 15 13 13 11 13 12 13 13 19 21 26
4 3 4 4 4 4 5 6 7 8 7 9 10 10 10 10 8 6 6 6 7 7 7 8 9 9 11 13 18 16 15 17 23 24 24 20 16 15 17 17 17 16 13 17 14 17 14 14 15 16 17 20 19 18 17 23 24 23 19 19 16 16 16 16 16 16 16 12 11 11 14 13 11 13 12 15 14 10 8 11 10 10 11 11 12
Wind_Direction
233 215 220 220 227 219 205 212 190 144 163 177 180 178 181 182 249 195 148 153 162 178 165 135 164 56 357 6 345 352 0 346 350 345 337 332 333 76 17 20 8 8 5 358 354 351 345 339 337 342 342 336 314 306 305 299 218 293 291 293 131 352 288 277 247 161 174 313 322 338 342 330 24 7 17 22 17 14 16 7 5 10 17 19 25
261 236 224 228 230 213 220 175 184 187 196 197 190 184 184 184 196 186 171 179 198 172 203 164 136 59 20 357 351 349 350 346 342 336 339 327 335 43 98 15 9 2 2 358 355 352 346 341 338 344 344 348 348 327 285 289 255 220 269 290 233 286 286 268 215 197 153 149 323 327 315 301 349 36 336 344 353 352 358 354 352 356 0 2 15
6 324 256 228 212 193 50 11 346 340 298 275 95 133 92 44 24 355 312 229 210 138 272 54 95 100 82 10 3 335 346 343 336 336 330 339 341 343 19 94 12 356 351 353 353 349 347 342 339 340 335 340 346 346 347 337 338 208 259 284 247 260 295 268 217 153 169 187 198 241 293 290 231 247 280 34 347 341 333 333 340 338 337 340 346
54 55 44 33 50 65 50 41 32 13 346 14 37 43 66 75 69 45 5 348 347 14 4 342 29 48 34 39 347 326 322 327 322 330 330 336 331 335 334 342 128 2 345 348 350 350 344 343 338 334 335 336 336 340 342 342 343 340 325 301 224 272 277 281 305 169 188 202 205 216 244 264 266 274 305 314 313 318 315 318 315 320 319 333 342
60 67 64 60 56 66 70 58 49 33 34 48 57 52 51 56 58 65 56 307 335 6 9 337 4 17 344 9 319 307 313 302 300 288 304 301 312 321 322 325 324 234 192 346 345 342 343 340 339 333 333 332 333 329 330 333 338 337 328 322 313 270 275 277 283 265 205 203 210 214 227 250 262 274 298 263 265 302 313 312 314 316 322 310 316
53 52 66 60 61 61 57 59 69 79 66 67 69 53 44 39 49 69 62 359 337 14 345 354 2 336 322 324 298 317 313 297 303 309 294 267 256 268 289 306 316 321 337 211 229 338 343 342 337 336 331 328 326 326 325 328 329 333 333 329 323 316 315 309 270 270 273 226 210 213 215 236 262 270 270 289 298 299 308 308 305 307 305 311 309
52 59 64 69 62 56 52 44 37 48 70 78 86 79 68 57 28 28 42 36 36 34 10 357 341 334 330 325 330 338 310 307 310 302 297 313 302 297 294 290 300 313 309 324 167 151 3 340 339 338 334 332 328 323 320 316 320 323 330 331 333 336 334 324 333 332 302 247 216 207 212 222 245 262 281 290 296 302 305 298 295 299 302 297 291
53 63 71 65 66 65 59 54 61 74 74 74 83 87 88 76 50 138 129 99 85 60 26 1 344 332 333 322 319 309 311 306 308 305 319 314 312 319 314 324 323 338 330 304 319 23 107 343 332 329 327 323 323 321 319 317 315 316 316 317 320 325 327 328 328 326 299 220 174 193 200 211 229 234 245 260 281 301 297 293 292 292 295 295 295
45 53 68 64 61 61 60 58 52 64 70 55 57 65 71 75 58 9 46 87 65 84 93 256 257 269 279 281 274 277 277 300 304 318 315 308 323 326 326 332 340 325 310 329 321 319 128 186 306 302 299 307 312 316 317 316 316 316 312 309 309 311 315 320 326 335 327 181 208 195 202 211 220 228 249 260 260 269 284 285 291 295 291 290 289
41 48 61 60 66 70 67 53 57 59 51 62 59 53 64 61 58 33 21 23 46 23 1 324 301 299 295 283 275 259 276 284 316 323 330 343 337 336 337 335 341 335 330 329 330 330 327 289 248 255 255 267 302 309 312 314 317 316 313 311 309 306 306 310 314 319 327 312 217 206 204 211 217 226 230 234 243 257 265 279 283 290 292 290 289
44 43 52 50 55 55 51 46 48 54 51 54 57 53 60 47 55 56 53 48 56 29 344 319 303 273 260 254 257 261 285 311 326 16 14 1 346 331 340 357 346 348 349 340 342 333 324 322 326 329 308 259 299 307 308 311 313 312 312 313 312 309 307 305 306 305 306 320 272 223 217 215 222 224 221 226 238 254 271 280 275 274 277 284 283
43 49 56 52 50 45 42 35 37 43 43 38 34 31 33 49 49 48 67 99 50 15 358 329 301 284 308 295 263 295 280 339 68 84 39 17 2 2 15 5 11 13 6 349 347 336 329 330 328 324 324 316 292 288 298 303 303 304 308 309 309 310 309 308 303 300 299 298 309 291 257 232 220 219 220 225 241 249 244 252 259 257 259 265 274
39 43 47 51 49 46 47 47 47 49 49 47 39 34 29 31 53 46 40 48 36 15 2 328 336 341 333 296 292 207 130 93 107 58 1 5 12 27 25 15 27 15 5 351 342 348 349 346 339 333 331 327 322 309 279 281 280 294 306 311 310 308 308 306 306 304 300 297 297 300 303 242 219 218 219 227 235 232 221 229 241 250 259 262 263
44 50 54 58 61 59 54 51 54 60 59 53 44 39 35 31 17 67 52 52 51 22 12 347 18 349 334 335 210 306 119 107 71 10 351 32 44 36 14 32 25 7 358 353 1 359 356 349 343 336 332 331 326 325 327 318 310 323 316 310 308 306 306 306 304 303 302 301 296 297 300 254 225 221 222 229 231 232 222 222 231 244 250 250 256
46 44 47 48 57 60 56 56 53 53 60 54 47 44 36 33 29 22 49 57 54 38 29 24 7 336 300 305 352 346 143 130 16 348 10 64 19 24 39 30 17 12 357 355 351 341 340 341 338 330 327 325 322 322 318 315 317 321 304 303 301 305 305 305 305 303 303 301 299 295 291 279 239 230 231 237 233 244 230 225 229 237 238 238 243
45 48 51 49 50 55 56 53 51 49 54 56 47 43 35 33 31 31 22 49 39 45 36 32 26 360 11 340 314 315 319 45 351 330 116 18 4 39 39 7 4 6 352 341 335 334 333 335 331 327 324 317 316 316 310 312 306 285 279 283 288 297 305 305 305 304 304 301 299 297 291 277 269 263 260 245 246 254 246 235 235 238 232 234 242
49 47 49 50 49 50 51 51 51 47 53 58 55 45 40 37 33 41 33 36 48 44 45 38 37 27 12 349 342 331 4 330 331 323 100 341 33 16 5 357 14 357 339 336 337 336 335 332 331 327 320 318 316 312 310 310 310 319 311 290 284 294 301 303 304 304 303 303 301 298 293 287 278 266 256 260 265 268 260 238 245 249 250 249 245
50 50 49 51 52 49 50 52 51 48 48 53 52 48 38 36 30 33 38 32 45 45 43 47 45 36 37 42 16 341 328 324 321 320 332 338 18 338 351 8 -0 342 335 336 343 339 339 333 329 325 322 320 317 316 315 314 317 315 318 318 313 305 302 301 303 305 305 306 306 303 297 293 287 281 276 270 266 266 261 244 250 251 253 254 252
49 48 48 48 50 47 49 50 50 49 44 48 46 44 39 32 27 35 32 28 32 52 40 25 46 41 30 34 27 359 336 332 341 324 326 338 330 331 346 354 343 335 334 341 338 335 339 336 330 327 324 322 321 320 322 319 314 308 294 286 300 308 307 307 306 304 306 305 304 304 301 298 293 286 281 277 272 267 258 243 243 244 245 247 250
50 47 45 43 45 46 45 47 49 45 44 46 42 34 36 34 31 30 33 33 30 38 38 29 30 26 19 24 18 11 10 15 2 340 315 312 318 339 148 331 332 328 340 341 336 339 333 328 327 326 325 322 319 322 322 323 321 319 323 324 324 324 321 318 313 310 308 305 303 303 302 299 297 294 290 283 278 274 266 254 251 250 248 247 247
47 46 42 42 43 44 41 43 43 39 40 42 41 36 37 34 27 28 30 34 35 28 35 32 27 22 6 15 11 7 360 7 352 345 331 319 313 327 320 311 254 276 335 325 331 337 325 317 315 314 318 322 324 325 322 324 323 324 325 335 327 322 322 321 317 312 309 306 305 304 303 301 299 296 295 291 286 278 271 267 260 251 249 249 249
45 41 42 41 41 40 42 43 43 41 42 42 38 40 36 38 34 33 27 36 34 35 35 21 28 25 17 2 12 -0 354 354 351 345 326 308 307 316 321 324 322 316 309 301 322 325 317 305 314 312 310 319 323 323 323 321 327 322 324 326 317 320 320 318 316 314 311 308 306 304 302 301 301 300 297 294 292 287 280 272 268 266 264 259 249
49 44 41 38 43 42 44 44 43 42 41 38 36 35 33 34 34 35 37 31 27 28 34 27 11 28 18 15 13 8 353 339 333 337 322 314 310 306 310 311 307 308 306 314 314 306 298 304 305 300 305 314 314 315 320 318 312 315 318 302 314 318 317 317 314 313 312 311 310 309 307 306 303 300 297 295 292 289 286 281 274 269 266 261 250
54 50 41 36 41 43 43 46 43 40 41 37 31 27 29 32 33 33 32 31 25 25 28 24 17 14 19 10 5 353 346 342 334 321 318 312 310 301 305 312 302 289 302 296 279 270 253 272 278 273 295 302 297 305 303 305 309 319 328 326 315 314 315 315 316 314 312 309 305 304 302 302 304 303 301 296 291 288 285 282 279 274 268 266 261
53 55 45 37 41 45 42 41 42 41 39 38 36 28 29 39 40 41 39 32 29 23 30 23 17 8 358 350 350 344 342 342 322 315 312 310 303 301 302 309 301 304 303 302 296 261 248 252 246 261 288 289 284 287 290 290 301 326 352 324 317 305 300 304 307 308 307 304 301 300 299 297 296 296 296 297 296 291 286 283 280 276 272 266 264
64 59 50 44 50 50 51 51 47 43 38 37 34 29 24 37 39 35 35 31 23 22 36 17 16 6 350 340 348 333 334 340 323 318 318 317 312 313 310 304 289 293 295 296 295 306 273 226 242 257 277 283 289 291 289 294 293 349 349 323 312 307 301 300 301 302 302 302 302 301 300 297 294 293 293 292 293 293 291 286 280 278 275 272 268
77 73 61 61 61 59 53 53 48 44 37 32 26 28 21 27 37 32 30 23 12 14 19 14 5 359 352 347 327 320 332 328 324 317 319 312 310 311 317 317 312 297 304 301 299 280 289 300 293 296 284 277 278 294 299 312 315 305 329 316 301 298 298 298 300 302 302 302 301 300 299 296 293 291 289 288 288 289 290 288 285 279 275 274 275
87 82 68 64 62 63 64 59 52 48 41 34 27 23 16 20 26 26 26 17 358 11 358 352 352 341 338 337 323 321 322 323 316 311 311 310 302 302 305 302 310 313 315 308 305 296 304 307 303 284 278 288 292 290 299 302 292 309 312 301 297 293 293 298 300 301 302 301 300 299 298 297 295 292 289 287 285 284 284 284 284 283 281 281 281
99 95 86 76 64 56 63 59 49 44 40 36 26 16 354 18 19 16 16 357 334 345 341 338 331 315 324 316 311 307 309 314 304 301 305 298 294 293 288 293 301 296 308 308 304 308 311 313 305 296 295 295 297 302 301 294 296 301 297 293 290 289 288 292 296 299 300 298 296 296 296 295 294 291 288 285 283 281 280 280 279 278 276 274 273
109 105 93 81 72 55 52 49 44 35 30 23 14 8 355 7 5 5 13 348 338 342 342 339 335 331 317 317 309 305 306 304 301 298 292 291 287 287 289 287 280 281 290 296 296 293 295 299 292 298 302 301 298 294 290 287 280 285 290 289 287 285 289 292 291 292 291 291 292 291 291 290 289 288 286 284 282 280 279 278 278 278 277 276 274
88 79 71 59 48 44 42 34 30 25 20 16 6 4 359 3 359 358 5 353 343 336 337 335 321 319 313 305 303 297 304 300 295 291 287 285 290 293 289 285 277 272 277 283 289 283 287 297 293 288 297 297 295 293 289 285 287 286 287 283 281 283 287 285 277 275 279 284 287 287 286 286 286 285 285 284 283 282 280 279 279 279 279 278 275
70 62 57 46 38 32 28 25 18 18 11 7 4 358 352 2 351 352 349 341 334 326 327 325 314 307 308 308 308 308 312 309 304 303 299 295 292 290 288 284 280 274 273 275 270 282 291 286 284 285 281 290 296 295 294 293 287 278 285 283 282 284 281 282 277 276 279 280 282 284 285 286 284 284 283 283 282 281 280 278 277 277 277 278 276
57 55 51 42 33 29 23 20 16 5 3 356 355 347 345 345 339 335 327 328 324 320 318 314 310 308 309 307 308 308 309 307 309 310 305 302 300 292 290 286 280 276 274 274 278 286 288 282 281 285 287 286 285 284 292 298 298 299 296 291 287 284 281 280 280 274 271 274 277 279 281 284 284 282 280 279 279 278 278 277 276 275 274 274 275
62 56 50 43 31 22 19 14 5 357 346 344 340 338 336 329 325 323 318 319 315 311 309 306 311 308 305 305 306 311 313 307 306 304 303 302 299 294 290 288 283 282 275 276 279 281 289 298 293 289 292 284 280 285 291 301 303 305 300 295 289 285 280 278 277 276 273 274 275 275 275 278 281 282 280 279 279 278 277 277 276 274 272 273 272
74 63 47 42 26 20 9 6 355 344 337 332 334 327 323 320 313 312 308 306 304 303 303 302 307 308 305 306 307 312 314 307 304 301 299 295 295 293 290 289 285 283 282 276 279 281 286 289 295 298 297 299 294 301 304 299 296 298 298 298 297 293 286 281 279 278 277 273 274 274 273 276 279 279 278 279 279 278 277 276 275 273 272 270 270
101 86 71 32 22 13 0 354 346 334 326 326 320 316 310 308 305 303 303 300 297 296 295 300 305 308 306 307 307 315 310 305 305 304 301 301 301 297 294 291 288 287 286 283 276 278 285 289 291 294 302 305 308 305 305 301 297 297 298 298 297 296 293 288 284 283 280 277 275 274 274 275 276 276 277 278 278 278 277 275 274 273 271 268 267
112 99 76 60 12 4 357 344 332 325 321 316 312 307 306 300 299 298 297 298 295 294 296 298 301 301 304 302 305 308 307 304 304 306 307 305 300 297 294 296 292 291 290 287 286 283 285 284 290 293 299 300 304 305 308 309 305 297 299 300 302 300 298 294 290 285 281 278 273 275 276 275 273 274 276 276 276 277 276 276 274 273 271 269 267
114 113 73 22 26 352 336 328 317 309 307 307 301 301 301 301 297 295 292 292 293 295 297 298 299 301 299 300 303 303 304 302 303 305 304 303 303 297 297 297 297 296 293 290 287 287 284 284 288 295 297 302 306 305 309 311 310 309 307 304 298 295 297 301 299 300 301 298 297 288 284 281 276 272 270 271 272 272 274 275 274 272 270 267 265
124 132 83 71 327 327 307 311 302 302 301 297 296 300 301 299 297 294 295 296 298 300 297 299 298 296 295 297 297 296 295 298 300 303 307 307 302 300 300 300 299 298 294 293 293 291 288 287 288 288 295 298 300 304 310 310 304 300 302 307 305 308 311 312 308 304 300 297 293 290 286 282 277 277 276 274 272 272 270 272 273 270 267 265 265
131 134 207 207 233 249 287 294 293 296 294 293 297 300 301 302 301 302 303 302 303 303 299 299 299 295 293 290 289 291 290 295 304 304 305 303 303 300 300 301 300 300 298 298 298 295 294 294 291 296 297 299 302 299 303 307 304 303 309 313 307 306 302 298 296 301 305 304 302 300 294 288 281 276 274 269 264 263 264 265 265 265 263 263 264
123 169 229 216 227 243 252 268 279 286 282 284 296 314 314 310 308 304 302 302 304 303 301 298 294 292 290 290 289 290 296 295 294 292 289 290 294 295 296 298 299 298 295 297 298 297 294 291 292 294 294 295 297 303 306 306 304 305 310 305 296 296 302 307 305 302 306 309 311 310 306 307 303 297 287 284 283 280 271 261 260 261 261 262 262
155 192 217 228 227 247 254 260 269 268 270 267 282 290 296 300 304 300 298 296 296 296 298 298 296 294 293 292 292 294 291 291 291 289 289 292 289 286 290 295 295 295 295 296 294 295 293 292 292 297 296 295 300 304 304 303 303 302 301 301 298 302 305 300 294 295 305 304 303 299 299 305 307 305 302 294 290 285 282 276 272 271 269 268 265
179 196 225 216 223 235 236 257 266 268 263 259 279 295 299 299 299 295 293 294 292 291 291 295 294 296 296 297 296 297 296 292 291 294 294 297 294 292 291 290 290 290 294 293 291 293 293 291 293 292 291 292 294 294 292 296 294 294 294 296 295 298 299 301 301 307 315 317 310 303 294 294 291 287 285 283 288 291 288 280 281 278 269 264 268
200 205 231 218 230 228 234 248 259 265 272 269 288 297 299 298 296 294 291 288 287 285 286 289 291 296 298 297 295 294 292 295 298 298 293 292 295 295 294 293 291 288 285 285 290 291 286 286 285 283 287 288 290 292 292 292 294 295 296 296 294 295 297 297 296 299 311 317 305 298 293 294 297 290 284 277 275 276 277 280 280 278 276 271 267
204 225 217 211 224 222 238 246 263 269 270 279 290 296 296 295 294 293 286 282 283 281 283 289 290 292 293 295 295 291 289 290 290 292 294 295 295 298 294 291 288 286 284 282 277 275 279 278 279 279 277 283 284 285 284 287 290 290 291 287 287 287 289 291 291 296 300 309 299 291 288 288 297 290 285 283 281 280 278 278 278 276 272 267 265
216 225 217 216 220 227 235 253 260 269 274 278 286 290 293 292 291 290 283 282 279 279 281 285 285 288 290 292 293 292 292 294 294 295 298 299 299 296 292 287 281 275 273 273 276 276 274 273 274 274 275 271 275 279 281 282 282 282 283 281 282 281 280 279 288 291 294 292 283 289 285 283 288 287 284 289 292 286 281 277 275 275 274 272 270
211 215 212 209 213 224 237 245 257 269 267 272 280 288 290 289 289 292 284 280 276 273 276 276 283 286 289 286 288 290 293 295 296 296 297 295 294 289 279 268 264 266 266 266 268 272 271 268 267 270 270 269 268 269 270 271 271 272 271 273 274 273 277 280 282 281 284 280 280 280 278 289 302 286 282 287 290 288 285 281 277 277 276 275 275
217 216 223 209 212 219 234 240 250 261 264 268 278 284 287 288 295 294 280 275 272 273 277 278 281 280 283 283 287 292 291 290 291 290 291 293 291 286 279 267 260 258 259 255 260 263 265 266 266 263 262 259 257 259 256 256 256 256 259 263 272 278 286 289 288 292 284 282 274 275 279 285 295 290 288 290 291 286 283 282 281 276 275 274 273
210 210 204 209 212 217 227 233 242 255 267 270 274 282 288 292 297 284 278 275 274 277 277 280 281 280 276 276 281 286 289 287 290 293 294 295 291 283 275 266 255 249 248 260 264 267 265 264 264 265 268 271 271 273 274 274 278 281 285 286 285 288 286 288 287 287 283 283 275 272 277 283 291 288 288 287 285 282 283 281 279 280 278 274 273
212 204 206 209 216 220 223 232 237 252 265 270 276 286 291 290 289 285 279 277 275 279 279 279 280 280 276 277 279 283 283 285 289 293 296 298 295 290 286 283 280 271 271 268 272 265 268 267 270 271 272 275 276 279 280 280 280 283 282 281 283 284 281 280 282 283 282 278 278 279 277 276 289 285 288 289 288 277 280 283 286 282 277 274 270
216 204 208 216 213 224 222 232 245 253 263 271 278 289 291 289 287 278 277 278 277 279 282 283 282 280 285 286 285 284 282 285 292 298 300 301 295 289 287 281 278 275 274 277 271 274 270 267 265 269 269 270 270 270 270 271 271 271 272 272 276 275 277 276 277 283 282 272 272 274 277 283 289 287 298 302 294 285 277 275 274 283 295 303 294